Wind_Speed
25 24 25 24 23 23 22 20 18 15 15 13 11 10 11 13 13 10 7 6 5 5 5 5 5 6 6 5 6 7 7 8 9 10 12 10 10 10 10 11 12 13 13
25 24 24 25 25 26 24 22 20 19 16 13 14 13 12 14 14 13 8 6 6 6 7 8 8 7 8 7 6 7 7 8 8 9 10 10 11 10 10 11 13 13 13
22 22 23 23 24 25 24 20 21 20 18 14 14 14 13 13 15 15 13 8 6 7 8 9 10 10 8 8 7 8 7 7 8 8 9 10 10 9 12 12 12 13 13
23 24 25 26 26 24 23 21 20 20 19 18 16 16 16 15 15 17 15 13 10 8 8 10 11 11 11 10 9 8 8 7 8 8 9 9 9 9 11 12 11 12 11
26 28 27 27 28 28 24 22 22 22 19 18 17 18 18 18 17 17 18 16 13 11 11 11 12 13 14 13 12 11 9 9 8 9 9 9 9 10 11 11 9 9 9
25 27 28 29 28 27 25 23 23 24 23 20 18 19 20 21 19 19 20 20 17 15 13 13 14 13 15 15 15 14 12 11 10 10 10 11 11 11 11 11 10 8 8
23 26 29 29 26 25 26 25 25 25 24 24 21 20 21 21 21 20 20 21 21 20 19 17 15 16 16 16 16 17 16 16 14 12 12 12 12 12 12 11 12 9 8
21 23 26 28 27 27 27 27 26 25 25 25 25 23 22 23 23 22 20 20 20 21 23 22 21 19 19 18 18 18 18 18 17 15 14 13 13 13 14 12 12 11 9
19 22 24 26 27 27 28 27 26 26 25 26 26 26 25 25 25 25 25 24 23 22 22 23 25 25 22 20 21 21 19 19 19 18 17 16 15 15 15 13 13 12 10
23 24 25 27 26 28 29 30 30 28 29 28 28 26 28 28 28 28 28 27 27 26 25 24 25 27 29 25 23 23 23 20 20 20 19 18 17 16 16 14 15 14 13
24 25 28 29 30 30 31 33 32 31 30 31 32 31 29 29 30 30 30 30 32 31 29 27 27 27 29 30 30 26 24 23 20 20 20 21 19 18 16 15 16 16 15
27 29 29 32 34 33 33 33 34 35 33 33 32 32 33 32 33 34 34 35 34 34 33 31 31 30 30 31 32 32 28 25 23 21 21 21 21 19 18 17 17 18 18
29 29 31 33 36 36 35 34 35 35 35 35 35 36 36 37 37 37 37 37 37 38 36 36 36 36 34 34 34 33 33 31 26 25 23 22 23 21 19 18 18 19 20
30 30 29 30 30 32 33 33 33 33 35 37 37 36 38 39 39 40 40 41 40 40 39 40 39 40 39 38 36 35 34 35 32 28 26 24 24 23 22 20 20 21 22
30 29 28 28 28 29 30 31 31 31 33 33 35 37 39 40 41 42 42 43 43 43 43 44 44 44 43 43 42 40 39 36 37 32 29 27 26 24 24 22 21 22 23
30 32 32 33 34 32 31 31 32 32 31 31 33 35 36 38 39 42 43 44 45 47 47 48 47 45 48 46 44 44 45 41 39 38 32 31 29 28 26 25 23 23 25
33 35 37 36 35 35 34 35 36 37 38 38 39 40 40 40 42 43 44 45 47 48 49 50 51 52 53 48 47 46 46 47 47 43 40 35 34 32 29 29 26 25 26
36 35 35 35 35 36 37 38 39 41 41 42 44 45 46 46 48 49 49 49 49 48 49 52 53 54 55 54 53 54 53 47 53 48 46 41 38 36 33 31 30 27 27
37 37 38 37 38 38 38 39 40 42 43 44 45 46 47 48 49 52 53 52 52 53 53 51 52 56 59 54 56 54 56 53 47 56 50 47 43 40 38 35 33 31 29
40 40 40 40 41 41 41 41 43 44 45 47 48 49 49 51 53 54 55 56 58 59 59 57 56 56 58 57 57 58 57 53 51 48 47 52 49 44 41 40 35 34 31
42 42 43 43 43 43 44 45 47 50 51 52 51 52 54 56 58 59 59 59 60 64 66 67 66 61 61 60 61 61 59 55 53 53 47 50 52 48 44 45 40 36 35
45 45 46 47 46 47 49 50 51 53 54 55 56 57 59 61 62 64 66 65 64 65 68 73 74 72 69 64 62 62 64 59 52 53 55 50 54 54 49 47 45 39 38
46 47 48 48 49 51 53 55 57 60 62 61 60 61 63 66 68 69 71 72 73 75 74 75 78 78 74 71 67 66 65 62 59 55 54 56 58 61 56 50 50 44 41
48 49 50 51 52 53 55 58 60 61 60 59 59 61 62 64 67 71 74 76 78 79 82 81 83 82 80 73 70 66 66 65 62 62 55 60 53 61 61 55 54 49 45
49 50 50 50 52 54 56 58 58 58 57 59 60 63 65 68 69 70 71 72 72 74 76 76 78 81 82 78 79 75 74 75 69 67 65 63 60 63 65 63 60 54 50
50 50 51 53 56 57 57 58 58 57 58 59 61 63 65 68 68 69 72 76 80 80 82 80 81 84 86 83 76 63 65 68 68 69 70 64 50 52 60 68 63 60 56
Wind_Direction
306 308 305 305 311 318 319 318 317 320 330 303 309 322 332 337 341 340 331 333 292 296 304 309 317 319 324 344 347 353 356 352 357 356 357 353 360 357 353 345 347 346 337
307 308 308 310 311 313 311 311 312 314 320 290 293 306 316 326 330 329 327 325 314 288 291 298 301 308 314 323 325 331 339 344 347 349 359 358 349 350 351 351 350 350 349
300 300 302 305 306 310 305 300 305 308 312 300 279 291 299 309 313 319 322 315 313 311 291 292 294 299 301 302 311 312 320 328 334 337 342 353 348 346 343 349 351 353 354
296 296 298 300 301 301 301 295 294 298 303 304 276 279 288 292 301 308 313 317 311 307 303 291 288 288 292 295 301 300 301 306 314 319 326 335 345 340 343 345 346 352 349
295 298 299 299 298 298 298 294 289 289 290 296 288 277 281 288 292 298 305 306 310 307 297 295 287 285 283 287 289 291 286 291 299 305 311 321 324 331 335 341 340 346 347
293 291 291 293 292 290 291 292 289 284 284 284 284 278 280 286 293 296 300 303 301 301 299 292 288 289 287 285 281 281 281 280 286 295 299 304 307 311 321 329 330 336 344
290 289 292 292 289 283 280 282 284 284 281 281 277 278 279 280 284 287 290 297 300 301 300 298 294 289 288 290 285 279 277 276 276 280 289 293 295 297 304 316 318 326 339
288 281 286 287 287 286 284 280 277 277 277 277 276 272 270 274 277 279 282 286 289 293 297 300 299 295 293 289 286 283 277 274 273 272 276 281 285 289 294 294 305 309 322
290 276 277 279 278 278 279 279 277 277 278 277 275 274 275 273 271 273 274 275 275 278 282 288 293 294 292 290 288 286 282 276 272 269 268 273 277 282 284 285 286 293 300
285 275 272 273 274 275 276 278 278 278 279 279 279 279 275 274 280 280 274 272 272 272 273 275 280 286 292 291 287 286 284 280 275 271 266 266 270 273 276 275 276 282 283
271 267 269 271 270 271 275 279 280 280 279 279 280 281 279 279 279 276 275 278 279 275 272 272 272 274 281 286 287 283 281 280 274 270 266 261 263 268 270 268 271 273 276
275 269 269 270 271 272 272 274 278 280 280 279 278 278 280 277 277 278 278 277 275 276 278 272 271 270 271 275 278 280 277 276 272 267 264 262 261 263 265 263 262 267 266
279 274 272 271 272 274 277 276 276 276 277 276 275 275 274 275 276 275 275 276 276 276 275 272 272 271 268 267 271 277 280 279 276 273 265 257 259 258 259 257 260 260 261
275 274 277 278 278 279 280 280 281 278 277 276 275 273 273 274 273 273 274 275 275 276 276 274 272 271 269 268 267 269 272 276 276 274 270 262 255 257 256 251 255 256 256
282 284 285 284 283 283 284 284 282 281 278 277 278 279 279 278 276 276 275 276 276 275 275 274 272 270 271 270 268 266 265 268 271 269 269 263 258 252 254 251 251 256 255
282 286 286 286 287 288 286 285 286 285 281 280 280 279 278 278 279 280 280 278 277 276 275 274 276 272 274 272 269 269 266 260 265 267 262 261 255 252 251 253 251 256 256
279 281 283 285 284 285 287 286 285 285 286 286 285 284 284 282 281 280 278 276 276 276 275 273 273 272 272 272 271 271 270 272 257 259 261 256 256 251 249 252 250 252 254
285 286 288 289 290 289 287 285 284 285 286 287 288 287 287 286 286 287 286 285 282 277 275 275 273 270 270 272 271 265 273 264 275 249 257 257 255 253 249 247 250 251 252
282 285 288 291 290 289 288 286 284 283 281 280 281 282 284 286 286 287 288 286 283 281 278 273 273 274 275 269 269 267 266 270 272 265 243 252 254 252 250 246 248 250 249
281 283 285 287 288 289 290 292 293 290 286 283 282 282 283 286 289 290 289 288 286 284 283 280 277 272 272 273 271 268 267 266 267 273 268 246 251 251 250 249 245 250 250
280 281 282 284 286 288 290 292 295 297 295 292 290 288 287 285 284 284 285 284 283 282 282 281 280 276 271 270 268 268 269 267 259 259 255 262 247 250 250 250 247 245 248
280 279 279 282 284 286 288 291 293 294 294 292 290 290 291 290 287 284 279 279 279 278 277 277 277 277 275 270 267 266 265 266 258 261 256 258 245 248 247 249 247 244 244
279 280 281 282 283 284 285 288 291 292 292 292 291 291 292 291 289 288 284 281 279 279 280 279 275 272 273 269 268 265 263 264 264 262 251 254 247 239 244 244 246 241 240
280 281 283 284 285 287 288 290 291 292 291 290 290 290 288 287 287 287 285 281 278 276 276 273 272 270 270 268 265 265 262 263 261 259 262 246 259 242 238 238 243 240 238
280 280 281 285 289 290 290 290 290 289 288 288 288 288 289 289 289 289 286 283 281 278 275 272 268 267 268 267 264 264 261 260 259 256 256 254 254 251 245 231 239 237 236
278 280 284 287 290 289 289 289 288 289 289 289 290 292 293 292 292 292 291 289 284 280 278 276 273 267 263 265 265 263 261 259 256 253 254 257 245 255 252 223 230 236 233
Height
5876 5875 5874 5873 5872 5871 5871 5870 5868 5867 5867 5866 5865 5864 5862 5861 5859 5858 5858 5856 5855 5854 5853 5853 5853 5852 5851 5850 5849 5848 5847 5846 5844 5842 5839 5837 5835 5834 5832 5831 5828 5826 5824
5873 5872 5871 5871 5870 5869 5868 5867 5866 5864 5864 5864 5864 5864 5862 5860 5858 5857 5856 5855 5854 5852 5851 5851 5851 5850 5850 5849 5849 5847 5846 5845 5844 5842 5839 5837 5835 5833 5831 5830 5827 5825 5823
5870 5868 5867 5866 5866 5865 5865 5864 5862 5862 5862 5862 5862 5861 5860 5859 5857 5856 5854 5853 5852 5850 5849 5849 5849 5849 5848 5847 5847 5847 5846 5844 5843 5842 5840 5837 5834 5832 5830 5828 5826 5824 5822
5866 5864 5863 5862 5861 5861 5861 5860 5859 5859 5860 5859 5859 5858 5857 5856 5855 5854 5852 5851 5850 5849 5848 5847 5846 5846 5846 5846 5845 5845 5844 5843 5843 5841 5839 5837 5835 5832 5829 5828 5825 5823 5822
5862 5860 5860 5859 5858 5857 5857 5857 5856 5856 5856 5856 5856 5855 5854 5853 5852 5851 5850 5850 5849 5847 5846 5845 5844 5843 5843 5843 5843 5843 5842 5841 5840 5839 5837 5835 5834 5832 5830 5827 5826 5823 5821
5859 5857 5856 5855 5854 5853 5853 5853 5853 5852 5851 5851 5851 5851 5851 5851 5850 5850 5849 5848 5846 5845 5844 5844 5842 5840 5839 5839 5839 5839 5839 5839 5837 5836 5835 5834 5833 5831 5829 5827 5825 5823 5821
5855 5853 5851 5850 5850 5849 5848 5848 5848 5847 5847 5847 5846 5846 5847 5847 5846 5846 5846 5845 5844 5843 5843 5841 5840 5837 5836 5835 5835 5835 5836 5835 5834 5832 5832 5831 5831 5830 5828 5825 5824 5822 5820
5852 5850 5848 5845 5844 5843 5842 5842 5843 5843 5843 5842 5842 5841 5841 5842 5841 5841 5842 5841 5841 5841 5840 5839 5837 5835 5833 5832 5831 5830 5831 5830 5830 5829 5828 5827 5827 5827 5826 5824 5822 5820 5818
5847 5846 5844 5842 5841 5839 5838 5837 5837 5838 5838 5837 5837 5837 5837 5837 5837 5837 5836 5836 5836 5836 5836 5835 5834 5831 5829 5829 5828 5827 5826 5826 5825 5825 5824 5824 5824 5823 5823 5822 5820 5818 5816
5843 5841 5839 5838 5836 5835 5834 5833 5832 5833 5833 5833 5833 5833 5833 5833 5833 5832 5831 5831 5831 5831 5831 5830 5829 5828 5826 5825 5824 5823 5822 5822 5821 5821 5820 5820 5820 5819 5819 5819 5818 5816 5814
5837 5835 5834 5833 5831 5829 5828 5827 5827 5827 5827 5828 5828 5828 5828 5828 5827 5827 5826 5827 5826 5825 5826 5825 5824 5823 5822 5820 5819 5818 5817 5817 5816 5816 5816 5816 5815 5815 5815 5816 5815 5813 5812
5830 5829 5828 5827 5826 5825 5823 5822 5821 5821 5821 5821 5821 5821 5821 5822 5821 5820 5820 5820 5819 5819 5819 5819 5818 5816 5816 5814 5814 5813 5811 5811 5810 5809 5809 5811 5811 5810 5810 5811 5810 5810 5810
5824 5823 5822 5820 5819 5819 5818 5817 5816 5815 5815 5815 5814 5813 5813 5813 5813 5812 5812 5812 5811 5811 5812 5812 5810 5809 5809 5808 5808 5809 5809 5807 5807 5807 5804 5804 5806 5805 5805 5806 5806 5806 5805
5817 5816 5815 5815 5813 5812 5811 5810 5809 5808 5807 5806 5806 5806 5805 5804 5804 5804 5803 5803 5803 5802 5803 5801 5802 5800 5801 5802 5802 5802 5803 5802 5801 5802 5801 5800 5799 5800 5799 5800 5801 5801 5801
5810 5809 5808 5808 5807 5805 5804 5803 5802 5801 5800 5799 5798 5797 5796 5796 5796 5796 5796 5795 5794 5794 5793 5792 5792 5792 5793 5793 5795 5796 5795 5796 5795 5794 5795 5795 5795 5793 5794 5794 5795 5796 5796
5803 5802 5801 5801 5800 5798 5797 5796 5794 5793 5793 5791 5790 5789 5789 5787 5787 5786 5786 5785 5785 5784 5784 5783 5782 5782 5783 5783 5785 5787 5787 5788 5788 5788 5788 5789 5788 5788 5787 5789 5787 5789 5790
5798 5796 5795 5794 5793 5791 5789 5789 5787 5785 5784 5782 5781 5780 5780 5778 5777 5776 5776 5776 5774 5773 5773 5772 5772 5772 5771 5775 5776 5776 5777 5778 5780 5781 5780 5780 5783 5782 5782 5783 5783 5782 5784
5789 5787 5787 5785 5785 5784 5783 5781 5780 5778 5776 5773 5771 5769 5768 5767 5766 5765 5764 5763 5763 5764 5763 5761 5760 5760 5761 5763 5764 5763 5766 5768 5769 5770 5771 5771 5773 5777 5776 5775 5777 5777 5777
5782 5780 5779 5777 5776 5775 5774 5773 5771 5769 5768 5766 5764 5761 5758 5756 5755 5753 5751 5751 5750 5749 5749 5750 5750 5746 5746 5752 5752 5754 5755 5755 5757 5757 5760 5762 5764 5767 5769 5768 5770 5771 5771
5774 5771 5770 5768 5767 5766 5763 5761 5759 5759 5758 5756 5754 5752 5749 5747 5744 5741 5740 5738 5736 5735 5735 5735 5736 5737 5734 5737 5739 5740 5741 5744 5745 5746 5748 5750 5753 5757 5760 5762 5761 5763 5765
5765 5763 5761 5759 5757 5755 5752 5750 5748 5745 5743 5741 5739 5738 5737 5735 5734 5732 5730 5728 5726 5723 5721 5720 5719 5721 5722 5724 5724 5725 5726 5731 5734 5735 5736 5738 5742 5746 5750 5754 5753 5755 5757
5755 5753 5751 5749 5747 5744 5742 5739 5737 5735 5732 5729 5726 5723 5721 5719 5718 5717 5716 5714 5712 5711 5709 5706 5703 5703 5704 5706 5709 5710 5711 5717 5718 5722 5723 5726 5731 5736 5738 5743 5745 5745 5748
5744 5742 5741 5738 5735 5733 5731 5728 5726 5723 5719 5715 5711 5708 5705 5703 5701 5699 5698 5697 5696 5693 5691 5689 5687 5685 5687 5689 5692 5695 5695 5699 5705 5706 5709 5711 5717 5721 5727 5729 5735 5735 5737
5734 5732 5731 5728 5725 5722 5718 5716 5713 5710 5707 5702 5698 5695 5692 5689 5686 5682 5679 5678 5677 5676 5675 5672 5667 5666 5666 5671 5673 5679 5681 5683 5688 5691 5696 5701 5703 5708 5714 5717 5722 5725 5728
5723 5721 5719 5716 5713 5710 5707 5704 5700 5697 5693 5689 5686 5680 5675 5672 5669 5664 5659 5656 5654 5653 5652 5651 5649 5646 5644 5649 5652 5657 5662 5664 5671 5675 5679 5688 5691 5694 5697 5700 5708 5712 5715
5711 5709 5707 5704 5700 5697 5694 5690 5687 5683 5679 5675 5671 5665 5659 5656 5652 5647 5640 5636 5633 5629 5627 5624 5622 5623 5623 5625 5629 5634 5640 5643 5654 5658 5663 5668 5677 5673 5675 5678 5692 5697 5700